| time (UTC) | temp F | wind direction | speed MPH | gust MPH | rain 1hr in | rain 24hr in | rain mn in | humidity % | barometer mb |
| 20260906120328 | 51 | 62 | 0.0 | 0.0 | 0.00 | 0.00 | 0.00 | 78 | 1016.5 |
| 20260906115142 | 52 | 72 | 0.0 | 0.0 | 0.00 | 0.00 | 0.00 | 78 | 1016.7 |
| 20260906113951 | 51 | 45 | 0.0 | 0.0 | 0.00 | 0.00 | 0.00 | 79 | 1016.6 |
| 20260906112820 | 51 | 74 | 0.0 | 0.0 | 0.00 | 0.00 | 0.00 | 78 | 1016.9 |
| 20260906110335 | 50 | 102 | 0.0 | 0.0 | 0.00 | 0.00 | 0.00 | 80 | 1016.9 |
| 20260906103819 | 49 | 38 | 0.0 | 0.0 | 0.00 | 0.00 | 0.00 | 79 | 1017.1 |
| 20260906102631 | 50 | 38 | 0.0 | 0.0 | 0.00 | 0.00 | 0.00 | 79 | 1017.3 |
| 20260906101442 | 49 | 18 | 0.0 | 0.0 | 0.00 | 0.00 | 0.00 | 81 | 1017.3 |
| 20260906100222 | 49 | 0 | 0.0 | 0.0 | 0.00 | 0.00 | 0.00 | 82 | 1017.4 |
| 20260906095021 | 49 | 342 | 0.0 | 0.0 | 0.00 | 0.00 | 0.00 | 82 | 1017.3 |
| 20260906093825 | 49 | 343 | 0.0 | 0.0 | 0.00 | 0.00 | 0.00 | 82 | 1017.4 |
| 20260906092612 | 49 | 343 | 0.0 | 0.0 | 0.00 | 0.00 | 0.00 | 82 | 1017.5 |
| 20260906091434 | 49 | 343 | 0.0 | 0.0 | 0.00 | 0.00 | 0.00 | 82 | 1017.6 |
| 20260906090247 | 49 | 343 | 0.0 | 0.0 | 0.00 | 0.00 | 0.00 | 82 | 1017.6 |
| 20260906085103 | 49 | 343 | 0.0 | 0.0 | 0.00 | 0.00 | 0.00 | 80 | 1017.3 |
| 20260906083910 | 50 | 342 | 0.0 | 0.0 | 0.00 | 0.00 | 0.00 | 79 | 1017.5 |
| 20260906082721 | 50 | 343 | 0.0 | 0.0 | 0.00 | 0.00 | 0.00 | 78 | 1017.3 |
| 20260906081444 | 51 | 343 | 0.0 | 0.0 | 0.00 | 0.00 | 0.00 | 78 | 1017.6 |
| 20260906080219 | 51 | 343 | 0.0 | 0.0 | 0.00 | 0.00 | 0.00 | 78 | 1017.7 |
| 20260906075034 | 50 | 343 | 0.0 | 0.0 | 0.00 | 0.00 | 0.00 | 78 | 1017.9 |
| 20260906072454 | 53 | 322 | 0.0 | 0.0 | 0.00 | 0.00 | 0.00 | 73 | 1018.3 |
| 20260906071225 | 53 | 333 | 0.0 | 0.0 | 0.00 | 0.00 | 0.00 | 73 | 1018.4 |
| 20260906070019 | 53 | 333 | 0.0 | 0.0 | 0.00 | 0.00 | 0.00 | 72 | 1018.4 |
| 20260906063425 | 53 | 333 | 0.0 | 0.0 | 0.00 | 0.00 | 0.00 | 71 | 1018.5 |
| 20260906062243 | 54 | 333 | 0.0 | 0.0 | 0.00 | 0.00 | 0.00 | 70 | 1018.6 |
| 20260906061024 | 54 | 334 | 0.0 | 0.0 | 0.00 | 0.00 | 0.00 | 69 | 1018.5 |
| 20260906054550 | 55 | 334 | 0.0 | 0.0 | 0.00 | 0.00 | 0.00 | 66 | 1018.7 |
| 20260906052009 | 56 | 335 | 0.0 | 0.0 | 0.00 | 0.00 | 0.00 | 63 | 1018.9 |
| 20260906045427 | 59 | 313 | 0.0 | 0.0 | 0.00 | 0.00 | 0.00 | 58 | 1019.0 |
| 20260906044215 | 59 | 319 | 0.0 | 0.0 | 0.00 | 0.00 | 0.00 | 56 | 1019.0 |
| 20260906041631 | 60 | 319 | 0.0 | 0.0 | 0.00 | 0.00 | 0.00 | 54 | 1019.0 |
| 20260906040457 | 60 | 0 | 0.0 | 0.0 | 0.00 | 0.00 | 0.00 | 54 | 1019.1 |
| 20260906035305 | 60 | 52 | 0.0 | 0.0 | 0.00 | 0.00 | 0.00 | 54 | 1019.1 |
| 20260906032722 | 62 | 266 | 0.0 | 0.0 | 0.00 | 0.00 | 0.00 | 50 | 1018.8 |
| 20260906031529 | 62 | 273 | 0.0 | 0.0 | 0.00 | 0.00 | 0.00 | 49 | 1018.7 |
| 20260906030359 | 63 | 294 | 0.0 | 0.0 | 0.00 | 0.00 | 0.00 | 49 | 1018.7 |
| 20260906023839 | 64 | 300 | 0.0 | 0.0 | 0.00 | 0.00 | 0.00 | 46 | 1018.5 |
| 20260906022608 | 64 | 279 | 0.0 | 6.0 | 0.00 | 0.00 | 0.00 | 44 | 1018.6 |
| 20260906021334 | 65 | 290 | 1.0 | 13.0 | 0.00 | 0.00 | 0.00 | 43 | 1018.5 |
| 20260906020107 | 66 | 279 | 0.0 | 11.0 | 0.00 | 0.00 | 0.00 | 42 | 1018.5 |
| 20260906014836 | 66 | 262 | 0.0 | 0.0 | 0.00 | 0.00 | 0.00 | 43 | 1018.3 |
| 20260906013611 | 66 | 305 | 0.0 | 0.0 | 0.00 | 0.00 | 0.00 | 42 | 1018.0 |
| 20260906011035 | 67 | 249 | 0.0 | 0.0 | 0.00 | 0.00 | 0.00 | 39 | 1017.9 |
| 20260906005758 | 68 | 267 | 0.0 | 1.0 | 0.00 | 0.00 | 0.00 | 37 | 1018.0 |
| 20260906001911 | 69 | 296 | 0.0 | 0.0 | 0.00 | 0.00 | 0.00 | 36 | 1017.8 |
| 20260906000713 | 69 | 315 | 0.0 | 6.0 | 0.00 | 0.00 | 0.00 | 35 | 1017.7 |
| 20260905235432 | 69 | 275 | 0.0 | 0.0 | 0.00 | 0.00 | 0.00 | 31 | 1017.8 |
| 20260905234252 | 69 | 254 | 0.0 | 0.0 | 0.00 | 0.00 | 0.00 | 32 | 1017.9 |
| 20260905233032 | 70 | 262 | 0.0 | 0.0 | 0.00 | 0.00 | 0.00 | 31 | 1017.9 |
| 20260905231757 | 70 | 240 | 0.0 | 0.0 | 0.00 | 0.00 | 0.00 | 29 | 1017.7 |
| 20260905230527 | 71 | 355 | 0.0 | 0.0 | 0.00 | 0.00 | 0.00 | 29 | 1017.6 |
| 20260905225328 | 70 | 355 | 0.0 | 0.0 | 0.00 | 0.00 | 0.00 | 30 | 1017.7 |
| 20260905224135 | 70 | 355 | 0.0 | 0.0 | 0.00 | 0.00 | 0.00 | 30 | 1017.8 |
| 20260905222947 | 70 | 61 | 0.0 | 0.0 | 0.00 | 0.00 | 0.00 | 30 | 1018.0 |
| 20260905221717 | 70 | 75 | 0.0 | 0.0 | 0.00 | 0.00 | 0.00 | 31 | 1018.0 |
| 20260905220546 | 70 | 77 | 0.0 | 0.0 | 0.00 | 0.00 | 0.00 | 34 | 1018.0 |
| 20260905215308 | 71 | 71 | 0.0 | 0.0 | 0.00 | 0.00 | 0.00 | 34 | 1018.1 |
| 20260905214136 | 70 | 355 | 0.0 | 0.0 | 0.00 | 0.00 | 0.00 | 36 | 1018.3 |
| 20260905213000 | 69 | 331 | 0.0 | 0.0 | 0.00 | 0.00 | 0.00 | 37 | 1018.5 |
| 20260905211739 | 69 | 341 | 0.0 | 0.0 | 0.00 | 0.00 | 0.00 | 39 | 1018.6 |
| 20260905210610 | 68 | 23 | 0.0 | 0.0 | 0.00 | 0.00 | 0.00 | 37 | 1018.7 |
| 20260905205439 | 69 | 19 | 0.0 | 0.0 | 0.00 | 0.00 | 0.00 | 38 | 1018.8 |
| 20260905204225 | 69 | 92 | 0.0 | 0.0 | 0.00 | 0.00 | 0.00 | 37 | 1018.8 |
| 20260905203040 | 69 | 76 | 0.0 | 0.0 | 0.00 | 0.00 | 0.00 | 38 | 1018.8 |
| 20260905201824 | 68 | 113 | 0.0 | 0.0 | 0.00 | 0.00 | 0.00 | 38 | 1018.9 |
| 20260905200544 | 67 | 80 | 0.0 | 0.0 | 0.00 | 0.00 | 0.00 | 41 | 1019.1 |
| 20260905193932 | 66 | 26 | 0.0 | 0.0 | 0.00 | 0.00 | 0.00 | 44 | 1019.3 |
| 20260905192743 | 65 | 32 | 0.0 | 0.0 | 0.00 | 0.00 | 0.00 | 48 | 1019.3 |
| 20260905191523 | 65 | 0 | 0.0 | 0.0 | 0.00 | 0.00 | 0.00 | 56 | 1019.5 |
| 20260905190321 | 64 | 321 | 0.0 | 0.0 | 0.00 | 0.00 | 0.00 | 59 | 1019.6 |
| 20260905185045 | 64 | 328 | 0.0 | 0.0 | 0.00 | 0.01 | 0.00 | 61 | 1019.7 |
| 20260905183906 | 62 | 56 | 0.0 | 0.0 | 0.00 | 0.01 | 0.00 | 65 | 1019.8 |
| 20260905182706 | 62 | 13 | 0.0 | 1.0 | 0.00 | 0.02 | 0.00 | 64 | 1019.9 |
| 20260905180140 | 59 | 39 | 0.0 | 0.0 | 0.00 | 0.02 | 0.00 | 70 | 1020.1 |
| 20260905174926 | 59 | 24 | 0.0 | 0.0 | 0.00 | 0.02 | 0.00 | 73 | 1020.2 |
| 20260905173654 | 58 | 63 | 0.0 | 3.0 | 0.00 | 0.02 | 0.00 | 74 | 1020.4 |
| 20260905172433 | 57 | 42 | 0.0 | 1.0 | 0.00 | 0.02 | 0.00 | 77 | 1020.5 |
| 20260905171236 | 56 | 48 | 0.0 | 3.0 | 0.00 | 0.02 | 0.00 | 78 | 1020.4 |
| 20260905170002 | 56 | 5 | 0.0 | 0.0 | 0.00 | 0.02 | 0.00 | 79 | 1020.5 |
| 20260905164725 | 56 | 24 | 0.0 | 9.0 | 0.00 | 0.02 | 0.00 | 79 | 1020.4 |
| 20260905163502 | 55 | 30 | 0.0 | 5.0 | 0.00 | 0.02 | 0.00 | 81 | 1020.4 |
| 20260905162258 | 54 | 350 | 0.0 | 0.0 | 0.00 | 0.02 | 0.00 | 82 | 1020.5 |
| 20260905161029 | 53 | 38 | 0.0 | 3.0 | 0.00 | 0.02 | 0.00 | 85 | 1020.5 |
| 20260905155831 | 52 | 62 | 0.0 | 1.0 | 0.00 | 0.02 | 0.00 | 87 | 1020.7 |
| 20260905154618 | 52 | 38 | 0.0 | 0.0 | 0.00 | 0.02 | 0.00 | 89 | 1020.8 |
| 20260905153359 | 51 | 50 | 0.0 | 0.0 | 0.00 | 0.02 | 0.00 | 91 | 1020.8 |
| 20260905152204 | 50 | 128 | 0.0 | 0.0 | 0.00 | 0.02 | 0.00 | 93 | 1020.8 |
| 20260905151033 | 49 | 94 | 0.0 | 0.0 | 0.00 | 0.02 | 0.00 | 94 | 1020.7 |
| 20260905145822 | 48 | 86 | 0.0 | 0.0 | 0.00 | 0.02 | 0.00 | 93 | 1020.7 |
| 20260905144610 | 48 | 82 | 0.0 | 0.0 | 0.00 | 0.02 | 0.00 | 92 | 1020.5 |
| 20260905143351 | 48 | 60 | 0.0 | 0.0 | 0.00 | 0.02 | 0.00 | 90 | 1020.5 |
| 20260905142134 | 49 | 41 | 0.0 | 0.0 | 0.00 | 0.02 | 0.00 | 92 | 1020.4 |
| 20260905140946 | 48 | 94 | 0.0 | 0.0 | 0.00 | 0.02 | 0.00 | 93 | 1020.2 |
| 20260905135709 | 47 | 103 | 0.0 | 0.0 | 0.00 | 0.02 | 0.00 | 92 | 1020.2 |
| 20260905134456 | 47 | 105 | 0.0 | 0.0 | 0.00 | 0.02 | 0.00 | 91 | 1020.1 |
| 20260905133243 | 47 | 67 | 0.0 | 0.0 | 0.00 | 0.02 | 0.00 | 91 | 1020.0 |
| 20260905132043 | 47 | 49 | 0.0 | 0.0 | 0.00 | 0.02 | 0.00 | 91 | 1019.7 |
| 20260905125531 | 48 | 69 | 0.0 | 0.0 | 0.00 | 0.03 | 0.00 | 93 | 1019.5 |
| 20260905124326 | 47 | 74 | 0.0 | 0.0 | 0.00 | 0.03 | 0.00 | 94 | 1019.5 |
| 20260905123054 | 47 | 100 | 0.0 | 0.0 | 0.00 | 0.03 | 0.00 | 93 | 1019.5 |
| 20260905121913 | 46 | 96 | 0.0 | 0.0 | 0.00 | 0.03 | 0.00 | 93 | 1019.4 |